• In Moldova, Republic
  • List of Countries
  • For 7 days
  • Water Temperature
  • Satellite Maps
  • Weather Map
  • Weather Widgets
  • user-avatar
    Login

    Hourly Weather Perth

    Today, 18 January, Wednesday

    Time Temperature Precipitation Wind Pressure Humidity
    00:00 +22°C° 0 mm 5 mps 757 mmHg 42%
    01:00 +22°C° 0 mm 5 mps 757 mmHg 45%
    02:00 +21°C° 0 mm 7 mps 757 mmHg 48%
    03:00 +20°C° 0 mm 7 mps 757 mmHg 52%
    04:00 +19°C° 0 mm 6 mps 757 mmHg 55%
    05:00 +19°C° 0 mm 6 mps 757 mmHg 59%
    06:00 +20°C° 0 mm 5 mps 757 mmHg 56%
    07:00 +22°C° 0 mm 5 mps 757 mmHg 54%
    08:00 +23°C° 0 mm 6 mps 757 mmHg 48%
    09:00 +27°C° 0 mm 4 mps 756 mmHg 41%
    10:00 +30°C° 0 mm 3 mps 756 mmHg 35%
    11:00 +34°C° 0 mm 2 mps 755 mmHg 28%
    12:00 +36°C° 0 mm 2 mps 754 mmHg 25%
    13:00 +38°C° 0 mm 3 mps 754 mmHg 22%
    14:00 +35°C° 0 mm 2 mps 754 mmHg 26%
    15:00 +34°C° 0 mm 3 mps 753 mmHg 28%
    16:00 +33°C° 0 mm 4 mps 753 mmHg 30%
    17:00 +32°C° 0 mm 4 mps 753 mmHg 31%
    18:00 +29°C° 0 mm 5 mps 753 mmHg 39%
    19:00 +27°C° 0 mm 5 mps 753 mmHg 46%
    20:00 +23°C° 0 mm 5 mps 754 mmHg 53%
    21:00 +23°C° 0 mm 5 mps 754 mmHg 58%
    22:00 +22°C° 0 mm 6 mps 755 mmHg 63%
    23:00 +21°C° 0 mm 6 mps 755 mmHg 68%

    Tomorrow, 19 January, Thursday

    Time Temperature Precipitation Wind Pressure Humidity
    00:00 +20°C° 0 mm 5 mps 755 mmHg 72%
    01:00 +19°C° 0 mm 5 mps 755 mmHg 76%
    02:00 +17°C° 0 mm 5 mps 755 mmHg 80%
    03:00 +16°C° 0 mm 5 mps 756 mmHg 83%
    04:00 +15°C° 0 mm 4 mps 756 mmHg 86%
    05:00 +14°C° 0 mm 4 mps 756 mmHg 89%
    06:00 +17°C° 0 mm 4 mps 756 mmHg 80%
    07:00 +17°C° 0 mm 5 mps 757 mmHg 70%
    08:00 +20°C° 0 mm 5 mps 757 mmHg 60%
    09:00 +22°C° 0 mm 5 mps 757 mmHg 53%
    10:00 +25°C° 0 mm 5 mps 757 mmHg 46%
    11:00 +27°C° 0 mm 5 mps 757 mmHg 38%
    12:00 +28°C° 0 mm 5 mps 756 mmHg 36%
    13:00 +29°C° 0 mm 6 mps 756 mmHg 33%
    14:00 +29°C° 0 mm 6 mps 755 mmHg 31%
    15:00 +29°C° 0 mm 6 mps 755 mmHg 33%
    16:00 +28°C° 0 mm 6 mps 755 mmHg 36%
    17:00 +27°C° 0 mm 6 mps 755 mmHg 38%
    18:00 +24°C° 0 mm 6 mps 755 mmHg 45%
    19:00 +22°C° 0 mm 6 mps 755 mmHg 51%
    20:00 +20°C° 0 mm 5 mps 756 mmHg 58%
    21:00 +20°C° 0 mm 5 mps 756 mmHg 58%
    22:00 +19°C° 0 mm 5 mps 756 mmHg 58%
    23:00 +17°C° 0 mm 5 mps 757 mmHg 58%

    Day after tomorrow, 20 January, Friday

    Time Temperature Precipitation Wind Pressure Humidity
    00:00 +17°C° 0 mm 5 mps 757 mmHg 60%
    01:00 +16°C° 0 mm 5 mps 757 mmHg 63%
    02:00 +15°C° 0 mm 4 mps 757 mmHg 65%
    03:00 +15°C° 0 mm 4 mps 757 mmHg 67%
    04:00 +14°C° 0 mm 4 mps 757 mmHg 68%
    05:00 +14°C° 0 mm 4 mps 757 mmHg 70%
    06:00 +17°C° 0 mm 4 mps 757 mmHg 64%
    07:00 +19°C° 0 mm 4 mps 757 mmHg 57%
    08:00 +21°C° 0 mm 3 mps 757 mmHg 51%
    09:00 +25°C° 0 mm 3 mps 757 mmHg 42%
    10:00 +27°C° 0 mm 3 mps 757 mmHg 34%
    11:00 +30°C° 0 mm 3 mps 757 mmHg 25%
    12:00 +33°C° 0 mm 3 mps 756 mmHg 23%
    13:00 +34°C° 0 mm 4 mps 755 mmHg 20%
    14:00 +36°C° 0 mm 5 mps 755 mmHg 18%
    15:00 +35°C° 0 mm 5 mps 754 mmHg 20%
    16:00 +34°C° 0 mm 5 mps 754 mmHg 22%
    17:00 +34°C° 0 mm 5 mps 753 mmHg 25%
    18:00 +29°C° 0 mm 5 mps 754 mmHg 37%
    19:00 +26°C° 0 mm 5 mps 754 mmHg 50%
    20:00 +21°C° 0 mm 4 mps 754 mmHg 63%
    21:00 +21°C° 0 mm 4 mps 755 mmHg 68%
    22:00 +20°C° 0 mm 4 mps 755 mmHg 72%
    23:00 +19°C° 0 mm 4 mps 755 mmHg 77%

    21 January, Saturday

    Time Temperature Precipitation Wind Pressure Humidity
    00:00 +19°C° 0 mm 4 mps 755 mmHg 71%
    01:00 +19°C° 0 mm 3 mps 755 mmHg 64%
    02:00 +19°C° 0 mm 3 mps 754 mmHg 57%
    03:00 +19°C° 0 mm 3 mps 754 mmHg 53%
    04:00 +19°C° 0 mm 3 mps 754 mmHg 49%
    05:00 +19°C° 0 mm 3 mps 754 mmHg 45%
    06:00 +22°C° 0 mm 3 mps 754 mmHg 40%
    07:00 +25°C° 0 mm 3 mps 754 mmHg 35%
    08:00 +28°C° 0 mm 3 mps 755 mmHg 30%
    09:00 +31°C° 0 mm 3 mps 754 mmHg 26%
    10:00 +36°C° 0 mm 2 mps 754 mmHg 21%
    11:00 +40°C° 0 mm 2 mps 754 mmHg 16%
    12:00 +40°C° 0 mm 3 mps 753 mmHg 16%
    13:00 +42°C° 0 mm 4 mps 752 mmHg 15%
    14:00 +42°C° 0 mm 5 mps 752 mmHg 14%
    15:00 +41°C° 0 mm 5 mps 751 mmHg 16%
    16:00 +40°C° 0 mm 6 mps 751 mmHg 17%
    17:00 +39°C° 0 mm 6 mps 751 mmHg 19%
    18:00 +34°C° 0 mm 6 mps 752 mmHg 26%
    19:00 +30°C° 0 mm 5 mps 752 mmHg 33%
    20:00 +27°C° 0 mm 5 mps 753 mmHg 40%
    21:00 +26°C° 0 mm 4 mps 753 mmHg 45%
    22:00 +25°C° 0 mm 4 mps 753 mmHg 51%
    23:00 +25°C° 0 mm 4 mps 754 mmHg 56%

    22 January, Sunday

    Time Temperature Precipitation Wind Pressure Humidity
    00:00 +24°C° 0 mm 3 mps 753 mmHg 60%
    01:00 +22°C° 0 mm 3 mps 753 mmHg 64%
    02:00 +22°C° 0 mm 3 mps 753 mmHg 68%
    03:00 +21°C° 0 mm 3 mps 753 mmHg 71%
    04:00 +20°C° 0 mm 3 mps 753 mmHg 74%
    05:00 +19°C° 0 mm 3 mps 753 mmHg 77%
    06:00 +21°C° 0 mm 3 mps 753 mmHg 68%
    07:00 +24°C° 0 mm 3 mps 754 mmHg 59%
    08:00 +26°C° 0 mm 3 mps 754 mmHg 50%
    09:00 +28°C° 0 mm 4 mps 754 mmHg 43%
    10:00 +32°C° 0 mm 4 mps 754 mmHg 35%
    11:00 +34°C° 0 mm 5 mps 754 mmHg 27%
    12:00 +34°C° 0 mm 5 mps 754 mmHg 27%
    13:00 +34°C° 0 mm 6 mps 753 mmHg 26%
    14:00 +34°C° 0 mm 6 mps 753 mmHg 25%
    15:00 +33°C° 0 mm 7 mps 753 mmHg 32%
    16:00 +30°C° 0 mm 7 mps 754 mmHg 40%
    17:00 +28°C° 0 mm 7 mps 754 mmHg 47%
    18:00 +26°C° 0 mm 6 mps 755 mmHg 56%
    19:00 +22°C° 0 mm 6 mps 756 mmHg 65%
    20:00 +20°C° 0 mm 5 mps 756 mmHg 74%
    21:00 +19°C° 0 mm 5 mps 757 mmHg 76%
    22:00 +17°C° 0 mm 5 mps 757 mmHg 77%
    23:00 +17°C° 0 mm 4 mps 758 mmHg 79%

    23 January, Monday

    Time Temperature Precipitation Wind Pressure Humidity
    00:00 +17°C° 0 mm 4 mps 758 mmHg 80%
    01:00 +15°C° 0 mm 4 mps 758 mmHg 82%
    02:00 +14°C° 0 mm 4 mps 758 mmHg 83%
    03:00 +14°C° 0 mm 4 mps 758 mmHg 84%
    04:00 +13°C° 0 mm 4 mps 758 mmHg 86%
    05:00 +12°C° 0 mm 4 mps 759 mmHg 87%
    06:00 +14°C° 0 mm 4 mps 759 mmHg 78%
    07:00 +17°C° 0 mm 4 mps 760 mmHg 68%
    08:00 +19°C° 0 mm 4 mps 760 mmHg 58%
    09:00 +21°C° 0 mm 4 mps 760 mmHg 50%
    10:00 +23°C° 0 mm 4 mps 760 mmHg 41%
    11:00 +27°C° 0 mm 4 mps 760 mmHg 32%
    12:00 +28°C° 0 mm 5 mps 760 mmHg 30%
    13:00 +29°C° 0 mm 5 mps 759 mmHg 27%
    14:00 +30°C° 0 mm 6 mps 759 mmHg 25%
    15:00 +30°C° 0 mm 6 mps 759 mmHg 27%
    16:00 +29°C° 0 mm 6 mps 759 mmHg 29%
    17:00 +29°C° 0 mm 7 mps 759 mmHg 31%
    18:00 +27°C° 0 mm 6 mps 759 mmHg 36%
    19:00 +24°C° 0 mm 6 mps 760 mmHg 40%
    20:00 +22°C° 0 mm 6 mps 761 mmHg 45%
    21:00 +21°C° 0 mm 6 mps 761 mmHg 45%
    22:00 +20°C° 0 mm 6 mps 761 mmHg 45%
    23:00 +19°C° 0 mm 6 mps 762 mmHg 45%
    Show more